Regional Weather Roundup
Issued by NWS

Home | Current Version | Previous Version | Graphics & Text | Print | Product List | Glossary Off
Versions: 1 2 3 4 5 6 7 8 9 10 11 12 13 14 15 16 17 18 19 20 21 22 23 24 25 26 27 28 29 30 31 32 33 34 35 36 37 38 39 40 41 42 43 44 45 46 47 48 49 50

726
ASUS43 KDMX 231201
RWRIA

WEATHER ROUNDUP FOR IOWA
NATIONAL WEATHER SERVICE DES MOINES IA
700 AM CDT THU MAR 23 2017

NOTE: "FAIR" INDICATES FEW OR NO CLOUDS BELOW 12,000 FEET WITH NO
SIGNIFICANT WEATHER AND/OR OBSTRUCTIONS TO VISIBILITY.

* - THESE STATIONS ARE NOT NWS STATIONS...THUS NOT UNDER NWS
QUALITY CONTROL.  THEY ALSO DO NOT REPORT WEATHER SUCH
AS PRECIPITATION OR FOG.

IAZ001>003-012>014-020>022-031>034-043>046-231300-
   NORTHWEST IOWA

CITY           SKY/WX    TMP DP  RH WIND       PRES   REMARKS
CARROLL *      CLOUDY    41  21  45 SE15G21   30.06F
CHEROKEE *     CLOUDY    40  22  48 SE14      30.03F WCI  32
DENISON *      CLOUDY    43  21  42 SE9G16    30.01F
LE MARS *      CLOUDY    41  23  48 SE12      29.99F
ORANGE CITY *  CLOUDY    39  25  56 SE13      29.98F WCI  32
SHELDON *      CLOUDY    39  27  60 SE16G23   29.98F WCI  30
SIOUX CITY     CLOUDY    40  25  55 SE13      29.98F WCI  32
6HR MIN TEMP:  40; 6HR MAX TEMP:  42;

SPENCER        CLOUDY    38  21  50 SE16      30.04F WCI  29
6HR MIN TEMP:  38; 6HR MAX TEMP:  39;

STORM LAKE *   CLOUDY    39  19  45 SE20      30.03F WCI  30
$$

IAZ055>058-069>071-079>083-090>094-231300-
   SOUTHWEST IOWA

CITY           SKY/WX    TMP DP  RH WIND       PRES   REMARKS
ATLANTIC *     CLOUDY    45  23  42 SE10      30.06S
AUDUBON *      CLOUDY    43  21  42 SE8       30.07F
CLARINDA *       N/A     46  27  46 S13       30.09S
COUNCIL BLFS * CLOUDY    45  25  45 SE13      30.01F
CRESTON *      CLOUDY    43  23  45 SE20      30.09F
HARLAN  *      CLOUDY    45  23  42 SE13      30.07F
LAMONI         CLOUDY    44  26  49 SE15      30.10F
6HR MIN TEMP:  44; 6HR MAX TEMP:  44;

RED OAK *      CLOUDY    46  25  42 SE12G18   30.05F
SHENANDOAH *   CLOUDY    46  28  49 SE14G22   30.05F
$$

IAZ047>049-059>061-072>074-084-231300-
   CENTRAL IOWA

CITY           SKY/WX    TMP DP  RH WIND       PRES   REMARKS
AMES           CLOUDY    39  22  50 SE15      30.14F WCI  31
6HR MIN TEMP:  38; 6HR MAX TEMP:  40;

ANKENY *       CLOUDY    41  19  42 SE14G21   30.15S
BOONE *        CLOUDY    37  21  52 SE18      30.11F WCI  27
CHARITON *     CLOUDY    41  23  48 SE16      30.13F
DES MOINES     CLOUDY    42  19  39 SE10G20   30.13F
6HR MIN TEMP:  42; 6HR MAX TEMP:  43;

GRINNELL*      CLOUDY    37  23  56 SE15      30.20F WCI  28
MARSHALLTOWN   CLOUDY    37  22  54 SE18      30.18F WCI  27
6HR MIN TEMP:  37; 6HR MAX TEMP:  38;

NEWTON *       CLOUDY    37  21  52 SE17G25   30.16S WCI  28
PELLA *        CLOUDY    38  23  54 SE10      30.18F WCI  31
PERRY *        CLOUDY    40  17  38 SE15      30.10F WCI  32
$$

IAZ004>006-015-016-023>025-035-036-231300-
   NORTH CENTRAL IOWA

CITY           SKY/WX    TMP DP  RH WIND       PRES   REMARKS
ALGONA *       CLOUDY    36  25  64 SE18G29   30.09F WCI  25
CLARION *      CLOUDY    36  23  60 SE17G25   30.12F WCI  25
ESTHERVILLE    CLOUDY    35  23  61 SE21      30.06F WCI  24
6HR MIN TEMP:  34; 6HR MAX TEMP:  35;

FORT DODGE *   CLOUDY    37  18  44 SE14      30.11F WCI  29
MASON CITY     CLOUDY    34  23  64 SE18G24   30.16F WCI  23
6HR MIN TEMP:  34; 6HR MAX TEMP:  35;

FOREST CITY *  CLOUDY    34  25  69 SE17      30.13F WCI  23
WEBSTER CITY * CLOUDY    37  21  52 SE21G26   30.10F WCI  27
IOWA FALLS *   CLOUDY    37  23  57 SE14      30.17F WCI  28
$$

IAZ007>011-017>019-026>030-037>042-050>054-066-231300-
   NORTHEAST IOWA

CITY           SKY/WX    TMP DP  RH WIND       PRES   REMARKS
CEDAR RAPIDS   CLOUDY    35  23  61 SE15      30.24S WCI  25
6HR MIN TEMP:  34; 6HR MAX TEMP:  35;

CHARLES CITY * CLOUDY    34  21  60 SE17G24   30.20F WCI  23
CLINTON *      CLOUDY    33  24  69 SE17      30.32F WCI  22
DECORAH *      CLOUDY    34  21  60 SE12G21   30.23S WCI  25
DUBUQUE        CLOUDY    32  21  64 SE13G22   30.29F WCI  22
6HR MIN TEMP:  31; 6HR MAX TEMP:  35;

MONTICELLO *   CLOUDY    34  23  64 SE12G17   30.29R WCI  25
OELWEIN *      CLOUDY    32  23  69 SE22      30.23F WCI  19
WATERLOO       CLOUDY    35  22  58 SE10      30.21F WCI  27
6HR MIN TEMP:  35; 6HR MAX TEMP:  37;

$$

IAZ064-065-067-068-078-231300-
   EAST CENTRAL IOWA

CITY           SKY/WX    TMP DP  RH WIND       PRES   REMARKS
DAVENPORT      CLOUDY    34  23  64 SE13      30.31S WCI  25
6HR MIN TEMP:  32; 6HR MAX TEMP:  35;

IOWA CITY      CLOUDY    37  23  56 E12       30.28S WCI  29
6HR MIN TEMP:  37; 6HR MAX TEMP:  37;

MUSCATINE *    CLOUDY    37  21  52 SE12      30.29S WCI  30
QUAD CITIES    CLOUDY    35  23  61 E13       30.31F WCI  26
6HR MIN TEMP:  33; 6HR MAX TEMP:  35;

$$

IAZ062-063-075>077-085>089-095>099-231300-
   SOUTHEAST IOWA

CITY           SKY/WX    TMP DP  RH WIND       PRES   REMARKS
BURLINGTON     CLOUDY    37  23  56 SE13      30.27F WCI  29
6HR MIN TEMP:  37; 6HR MAX TEMP:  37;

FAIRFIELD *    CLOUDY    39  19  45 SE15G23   30.22F WCI  31
FORT MADISON * CLOUDY    39  21  48 SE8       30.27S WCI  34
KEOKUK *       MIX PCPN  37  25  60 SE14      30.26S WCI  29
OSKALOOSA *    CLOUDY    37  23  55 SE14      30.20F WCI  29
CENTERVILLE *  CLOUDY    41  23  48 SE10      30.18F
OTTUMWA        CLOUDY    39  21  48 SE10      30.19F WCI  32
6HR MIN TEMP:  39; 6HR MAX TEMP:  40;

WASHINGTON *   CLOUDY    37  21  52 SE15      30.25S WCI  28
$$

ABBREVIATIONS USED IN REMARKS
   TC - TEMPERATURES IN CELSIUS
  WCI - WIND CHILL INDEX
   HX - HEAT INDEX
  VSB - VISIBILITY
$$





USA.gov is the U.S. government's official web portal to all federal, state and local government web resources and services.